Osage River (Missouri), Tuscumbia (06926080)

StateMissouriLatestUnknown (3780 cfs)
RiverOsage RiverRatingObservedEstimated
Updated2020-08-14 9:00 (40 minutes ago)Flood - The river is flooding. Obstacles can be treacherous or deadly. The river should be avoided at this stage for casual trips and definitely for the inexperienced. Trips should be attempted only with protective gear and equipment.Flood(none)(none)
Discharge3780 cfs (median: 11800 cfs)High - The river is high and potentially dangerous, especially for the young and / or inexperienced. Normal stream obstacles are sometimes difficult to navigate. Extended distances can be attempted, but canoe travel may not be advisable.High(none)(none)
Height3.69 feetGood - Conditions are ideal for a canoe or kayak. Boats typically will drag on fewer than one-quarter of riffles, if at all, and portages are unnecessary or rare. Normal float lengths can be attempted without a problem.Good(none)(none)
TrendFalling (falling over 24 hours)Low - River is low but can still be floated. Some riffles are okay but most come with significant dragging and might need a portage. Float lengths should be reduced to accommodate low flow, dragging, and portages.Low(none)(none)
USGSExternal icon USGS Site (External icon Google Maps)Poor - River is too low to float comfortably. Most or all riffles will drag or must be portaged and some obstacles (such as slick shelf rock) cause undue problems. Avoid the river at this stage for casual paddling trips.Poor(none)(none)

Trending Data

Plot Image

Trips for Osage River (Missouri), Tuscumbia (06926080)

DateStartEndDistanceConditionDischargeHeightFishingDetails

A total of 0 rows are displayed.

Condition Descriptions

Fishing Conditions

Fish Species

Notes

Classic Trip List

The classic River Trips application is still available for use. It is updated with the new system using a data retrofit. It is no longer maintained. The original River Trips application is no longer updated (as of 1 Dec 2016) but can be checked for errors or for the condition of the data before it was converted to the new system.

Gauge Data Table

ObservationHeightDischargeMaximum
Discharge
Minimum
Discharge
Mean
Discharge
P05P10P20P25P50
(Median)
P75P80P90P95
2020-08-14 09:00 3.69 3780 40000 (2019) 1210 (2018) 16200 1210 2200 11800 34600 40000
2020-08-14 08:00 3.87 4090 40000 (2019) 1210 (2018) 16200 1210 2200 11800 34600 40000
2020-08-14 07:00 4.08 4460 40000 (2019) 1210 (2018) 16200 1210 2200 11800 34600 40000
2020-08-14 06:00 4.31 4830 40000 (2019) 1210 (2018) 16200 1210 2200 11800 34600 40000
2020-08-14 05:00 4.58 5270 40000 (2019) 1210 (2018) 16200 1210 2200 11800 34600 40000
2020-08-14 04:00 4.88 5810 40000 (2019) 1210 (2018) 16200 1210 2200 11800 34600 40000
2020-08-14 03:00 5.22 6450 40000 (2019) 1210 (2018) 16200 1210 2200 11800 34600 40000
2020-08-14 02:00 5.57 7160 40000 (2019) 1210 (2018) 16200 1210 2200 11800 34600 40000
2020-08-14 01:00 5.96 7980 40000 (2019) 1210 (2018) 16200 1210 2200 11800 34600 40000
2020-08-14 00:00 6.36 8860 40000 (2019) 1210 (2018) 16200 1210 2200 11800 34600 40000
2020-08-13 23:00 6.78 9820 44800 (2019) 1090 (2018) 20600 1090 4870 18200 38700 44800
2020-08-13 22:00 7.18 10800 44800 (2019) 1090 (2018) 20600 1090 4870 18200 38700 44800
2020-08-13 21:00 7.50 11600 44800 (2019) 1090 (2018) 20600 1090 4870 18200 38700 44800
2020-08-13 20:00 7.57 11700 44800 (2019) 1090 (2018) 20600 1090 4870 18200 38700 44800
2020-08-13 19:00 6.92 10200 44800 (2019) 1090 (2018) 20600 1090 4870 18200 38700 44800
2020-08-13 18:00 5.67 7360 44800 (2019) 1090 (2018) 20600 1090 4870 18200 38700 44800
2020-08-13 17:00 4.12 4520 44800 (2019) 1090 (2018) 20600 1090 4870 18200 38700 44800
2020-08-13 16:00 3.25 3140 44800 (2019) 1090 (2018) 20600 1090 4870 18200 38700 44800
2020-08-13 15:00 3.19 3060 44800 (2019) 1090 (2018) 20600 1090 4870 18200 38700 44800
2020-08-13 14:00 3.28 3180 44800 (2019) 1090 (2018) 20600 1090 4870 18200 38700 44800
2020-08-13 13:00 3.40 3350 44800 (2019) 1090 (2018) 20600 1090 4870 18200 38700 44800
2020-08-13 12:00 3.52 3520 44800 (2019) 1090 (2018) 20600 1090 4870 18200 38700 44800
2020-08-13 11:00 3.67 3740 44800 (2019) 1090 (2018) 20600 1090 4870 18200 38700 44800
2020-08-13 10:00 3.84 4040 44800 (2019) 1090 (2018) 20600 1090 4870 18200 38700 44800
2020-08-13 09:00 4.04 4390 44800 (2019) 1090 (2018) 20600 1090 4870 18200 38700 44800
2020-08-13 08:00 4.27 4760 44800 (2019) 1090 (2018) 20600 1090 4870 18200 38700 44800
2020-08-13 07:00 4.53 5180 44800 (2019) 1090 (2018) 20600 1090 4870 18200 38700 44800
2020-08-13 06:00 4.83 5720 44800 (2019) 1090 (2018) 20600 1090 4870 18200 38700 44800
2020-08-13 05:00 5.16 6330 44800 (2019) 1090 (2018) 20600 1090 4870 18200 38700 44800
2020-08-13 04:00 5.53 7070 44800 (2019) 1090 (2018) 20600 1090 4870 18200 38700 44800
2020-08-13 03:00 5.94 7940 44800 (2019) 1090 (2018) 20600 1090 4870 18200 38700 44800
2020-08-13 02:00 6.38 8900 44800 (2019) 1090 (2018) 20600 1090 4870 18200 38700 44800
2020-08-13 01:00 6.85 9990 44800 (2019) 1090 (2018) 20600 1090 4870 18200 38700 44800
2020-08-13 00:00 7.33 11100 44800 (2019) 1090 (2018) 20600 1090 4870 18200 38700 44800
2020-08-12 23:00 7.84 12400 49000 (2019) 1100 (2018) 22500 1100 4650 20000 42900 49000
2020-08-12 22:00 8.31 13700 49000 (2019) 1100 (2018) 22500 1100 4650 20000 42900 49000
2020-08-12 21:00 8.62 14500 49000 (2019) 1100 (2018) 22500 1100 4650 20000 42900 49000
2020-08-12 20:00 8.32 13700 49000 (2019) 1100 (2018) 22500 1100 4650 20000 42900 49000
2020-08-12 19:00 6.89 10100 49000 (2019) 1100 (2018) 22500 1100 4650 20000 42900 49000
2020-08-12 18:00 4.89 5830 49000 (2019) 1100 (2018) 22500 1100 4650 20000 42900 49000
2020-08-12 17:00 3.60 3630 49000 (2019) 1100 (2018) 22500 1100 4650 20000 42900 49000
2020-08-12 16:00 3.19 3060 49000 (2019) 1100 (2018) 22500 1100 4650 20000 42900 49000
2020-08-12 15:00 3.09 2920 49000 (2019) 1100 (2018) 22500 1100 4650 20000 42900 49000
2020-08-12 14:00 3.16 3020 49000 (2019) 1100 (2018) 22500 1100 4650 20000 42900 49000
2020-08-12 13:00 3.25 3140 49000 (2019) 1100 (2018) 22500 1100 4650 20000 42900 49000
2020-08-12 12:00 3.36 3290 49000 (2019) 1100 (2018) 22500 1100 4650 20000 42900 49000
2020-08-12 11:00 3.48 3460 49000 (2019) 1100 (2018) 22500 1100 4650 20000 42900 49000
2020-08-12 10:00 3.63 3680 49000 (2019) 1100 (2018) 22500 1100 4650 20000 42900 49000
2020-08-12 09:00 3.80 3970 49000 (2019) 1100 (2018) 22500 1100 4650 20000 42900 49000
2020-08-12 08:00 4.00 4320 49000 (2019) 1100 (2018) 22500 1100 4650 20000 42900 49000
2020-08-12 07:00 4.23 4700 49000 (2019) 1100 (2018) 22500 1100 4650 20000 42900 49000
2020-08-12 06:00 4.49 5120 49000 (2019) 1100 (2018) 22500 1100 4650 20000 42900 49000
2020-08-12 05:00 4.79 5640 49000 (2019) 1100 (2018) 22500 1100 4650 20000 42900 49000
2020-08-12 04:00 5.12 6260 49000 (2019) 1100 (2018) 22500 1100 4650 20000 42900 49000
2020-08-12 03:00 5.49 6990 49000 (2019) 1100 (2018) 22500 1100 4650 20000 42900 49000
2020-08-12 02:00 5.89 7830 49000 (2019) 1100 (2018) 22500 1100 4650 20000 42900 49000
2020-08-12 01:00 6.32 8770 49000 (2019) 1100 (2018) 22500 1100 4650 20000 42900 49000
2020-08-12 00:00 6.79 9850 49000 (2019) 1100 (2018) 22500 1100 4650 20000 42900 49000
2020-08-11 23:00 7.29 11000 50700 (2019) 1210 (2018) 23500 1210 5580 21000 43900 50700
2020-08-11 22:00 7.80 12300 50700 (2019) 1210 (2018) 23500 1210 5580 21000 43900 50700
2020-08-11 21:00 8.29 13600 50700 (2019) 1210 (2018) 23500 1210 5580 21000 43900 50700
2020-08-11 20:00 8.66 14600 50700 (2019) 1210 (2018) 23500 1210 5580 21000 43900 50700
2020-08-11 19:00 8.57 14400 50700 (2019) 1210 (2018) 23500 1210 5580 21000 43900 50700
2020-08-11 18:00 7.90 12600 50700 (2019) 1210 (2018) 23500 1210 5580 21000 43900 50700
2020-08-11 17:00 7.07 10500 50700 (2019) 1210 (2018) 23500 1210 5580 21000 43900 50700
2020-08-11 16:00 5.89 7830 50700 (2019) 1210 (2018) 23500 1210 5580 21000 43900 50700
2020-08-11 15:00 4.75 5570 50700 (2019) 1210 (2018) 23500 1210 5580 21000 43900 50700
2020-08-11 14:00 4.45 5050 50700 (2019) 1210 (2018) 23500 1210 5580 21000 43900 50700
2020-08-11 13:00 4.66 5410 50700 (2019) 1210 (2018) 23500 1210 5580 21000 43900 50700
2020-08-11 12:00 4.99 6010 50700 (2019) 1210 (2018) 23500 1210 5580 21000 43900 50700
2020-08-11 11:00 5.37 6750 50700 (2019) 1210 (2018) 23500 1210 5580 21000 43900 50700
2020-08-11 10:00 5.80 7640 50700 (2019) 1210 (2018) 23500 1210 5580 21000 43900 50700
2020-08-11 09:00 6.28 8680 50700 (2019) 1210 (2018) 23500 1210 5580 21000 43900 50700
2020-08-11 08:00 6.81 9890 50700 (2019) 1210 (2018) 23500 1210 5580 21000 43900 50700
2020-08-11 07:00 7.39 11300 50700 (2019) 1210 (2018) 23500 1210 5580 21000 43900 50700
2020-08-11 06:00 8.03 12900 50700 (2019) 1210 (2018) 23500 1210 5580 21000 43900 50700
2020-08-11 05:00 8.73 14800 50700 (2019) 1210 (2018) 23500 1210 5580 21000 43900 50700
2020-08-11 04:00 9.49 17000 50700 (2019) 1210 (2018) 23500 1210 5580 21000 43900 50700
2020-08-11 03:00 10.34 19500 50700 (2019) 1210 (2018) 23500 1210 5580 21000 43900 50700
2020-08-11 02:00 11.30 22000 50700 (2019) 1210 (2018) 23500 1210 5580 21000 43900 50700
2020-08-11 01:00 12.32 24900 50700 (2019) 1210 (2018) 23500 1210 5580 21000 43900 50700
2020-08-11 00:00 13.40 28000 50700 (2019) 1210 (2018) 23500 1210 5580 21000 43900 50700
2020-08-10 23:00 14.39 31000 50800 (2019) 1520 (2018) 22100 1520 4790 18100 43500 50800
2020-08-10 22:00 14.56 31500 50800 (2019) 1520 (2018) 22100 1520 4790 18100 43500 50800
2020-08-10 21:00 14.48 31200 50800 (2019) 1520 (2018) 22100 1520 4790 18100 43500 50800
2020-08-10 20:00 14.48 31200 50800 (2019) 1520 (2018) 22100 1520 4790 18100 43500 50800
2020-08-10 19:00 14.17 30300 50800 (2019) 1520 (2018) 22100 1520 4790 18100 43500 50800
2020-08-10 18:00 13.70 28900 50800 (2019) 1520 (2018) 22100 1520 4790 18100 43500 50800
2020-08-10 17:00 13.06 27000 50800 (2019) 1520 (2018) 22100 1520 4790 18100 43500 50800
2020-08-10 16:00 12.23 24600 50800 (2019) 1520 (2018) 22100 1520 4790 18100 43500 50800
2020-08-10 15:00 11.03 21300 50800 (2019) 1520 (2018) 22100 1520 4790 18100 43500 50800
2020-08-10 14:00 9.39 16700 50800 (2019) 1520 (2018) 22100 1520 4790 18100 43500 50800
2020-08-10 13:00 6.90 10100 50800 (2019) 1520 (2018) 22100 1520 4790 18100 43500 50800
2020-08-10 12:00 4.79 5640 50800 (2019) 1520 (2018) 22100 1520 4790 18100 43500 50800
2020-08-10 11:00 4.51 5150 50800 (2019) 1520 (2018) 22100 1520 4790 18100 43500 50800
2020-08-10 10:00 4.78 5620 50800 (2019) 1520 (2018) 22100 1520 4790 18100 43500 50800
2020-08-10 09:00 5.13 6280 50800 (2019) 1520 (2018) 22100 1520 4790 18100 43500 50800
2020-08-10 08:00 5.53 7070 50800 (2019) 1520 (2018) 22100 1520 4790 18100 43500 50800
2020-08-10 07:00 5.96 7980 50800 (2019) 1520 (2018) 22100 1520 4790 18100 43500 50800
2020-08-10 06:00 6.45 9060 50800 (2019) 1520 (2018) 22100 1520 4790 18100 43500 50800
2020-08-10 05:00 6.99 10300 50800 (2019) 1520 (2018) 22100 1520 4790 18100 43500 50800
2020-08-10 04:00 7.57 11700 50800 (2019) 1520 (2018) 22100 1520 4790 18100 43500 50800
2020-08-10 03:00 8.22 13400 50800 (2019) 1520 (2018) 22100 1520 4790 18100 43500 50800
2020-08-10 02:00 8.92 15300 50800 (2019) 1520 (2018) 22100 1520 4790 18100 43500 50800
2020-08-10 01:00 9.71 17600 50800 (2019) 1520 (2018) 22100 1520 4790 18100 43500 50800
2020-08-10 00:00 10.56 20000 50800 (2019) 1520 (2018) 22100 1520 4790 18100 43500 50800
2020-08-09 23:00 11.43 22400 50900 (2019) 5340 (2018) 21700 5340 6280 15200 43500 50900
2020-08-09 22:00 12.18 24500 50900 (2019) 5340 (2018) 21700 5340 6280 15200 43500 50900
2020-08-09 21:00 12.30 24800 50900 (2019) 5340 (2018) 21700 5340 6280 15200 43500 50900
2020-08-09 20:00 12.12 24300 50900 (2019) 5340 (2018) 21700 5340 6280 15200 43500 50900
2020-08-09 19:00 11.50 22600 50900 (2019) 5340 (2018) 21700 5340 6280 15200 43500 50900
2020-08-09 18:00 10.23 19200 50900 (2019) 5340 (2018) 21700 5340 6280 15200 43500 50900
2020-08-09 17:00 8.31 13700 50900 (2019) 5340 (2018) 21700 5340 6280 15200 43500 50900
2020-08-09 16:00 5.71 7450 50900 (2019) 5340 (2018) 21700 5340 6280 15200 43500 50900
2020-08-09 15:00 4.01 4340 50900 (2019) 5340 (2018) 21700 5340 6280 15200 43500 50900
2020-08-09 14:00 3.29 3200 50900 (2019) 5340 (2018) 21700 5340 6280 15200 43500 50900
2020-08-09 13:00 2.91 2690 50900 (2019) 5340 (2018) 21700 5340 6280 15200 43500 50900
2020-08-09 12:00 2.77 2510 50900 (2019) 5340 (2018) 21700 5340 6280 15200 43500 50900
2020-08-09 11:00 2.78 2520 50900 (2019) 5340 (2018) 21700 5340 6280 15200 43500 50900
2020-08-09 10:00 2.78 2520 50900 (2019) 5340 (2018) 21700 5340 6280 15200 43500 50900
2020-08-09 09:00 2.79 2530 50900 (2019) 5340 (2018) 21700 5340 6280 15200 43500 50900
2020-08-09 08:00 2.81 2560 50900 (2019) 5340 (2018) 21700 5340 6280 15200 43500 50900
2020-08-09 07:00 2.81 2560 50900 (2019) 5340 (2018) 21700 5340 6280 15200 43500 50900
2020-08-09 06:00 2.83 2580 50900 (2019) 5340 (2018) 21700 5340 6280 15200 43500 50900
2020-08-09 05:00 2.87 2640 50900 (2019) 5340 (2018) 21700 5340 6280 15200 43500 50900
2020-08-09 04:00 2.89 2660 50900 (2019) 5340 (2018) 21700 5340 6280 15200 43500 50900
2020-08-09 03:00 2.93 2710 50900 (2019) 5340 (2018) 21700 5340 6280 15200 43500 50900
2020-08-09 02:00 2.97 2770 50900 (2019) 5340 (2018) 21700 5340 6280 15200 43500 50900
2020-08-09 01:00 3.02 2830 50900 (2019) 5340 (2018) 21700 5340 6280 15200 43500 50900
2020-08-09 00:00 3.09 2920 50900 (2019) 5340 (2018) 21700 5340 6280 15200 43500 50900
2020-08-08 23:00 3.16 3020 50900 (2019) 3620 (2016) 22900 3620 5090 18600 45100 50900
2020-08-08 22:00 3.24 3130 50900 (2019) 3620 (2016) 22900 3620 5090 18600 45100 50900
2020-08-08 21:00 3.33 3250 50900 (2019) 3620 (2016) 22900 3620 5090 18600 45100 50900
2020-08-08 20:00 3.43 3390 50900 (2019) 3620 (2016) 22900 3620 5090 18600 45100 50900
2020-08-08 19:00 3.55 3560 50900 (2019) 3620 (2016) 22900 3620 5090 18600 45100 50900
2020-08-08 18:00 3.69 3780 50900 (2019) 3620 (2016) 22900 3620 5090 18600 45100 50900
2020-08-08 17:00 3.85 4050 50900 (2019) 3620 (2016) 22900 3620 5090 18600 45100 50900
2020-08-08 16:00 4.05 4410 50900 (2019) 3620 (2016) 22900 3620 5090 18600 45100 50900
2020-08-08 15:00 4.28 4780 50900 (2019) 3620 (2016) 22900 3620 5090 18600 45100 50900
2020-08-08 14:00 4.54 5200 50900 (2019) 3620 (2016) 22900 3620 5090 18600 45100 50900
2020-08-08 13:00 4.83 5720 50900 (2019) 3620 (2016) 22900 3620 5090 18600 45100 50900
2020-08-08 12:00 5.17 6350 50900 (2019) 3620 (2016) 22900 3620 5090 18600 45100 50900
2020-08-08 11:00 5.56 7140 50900 (2019) 3620 (2016) 22900 3620 5090 18600 45100 50900
2020-08-08 10:00 5.99 8040 50900 (2019) 3620 (2016) 22900 3620 5090 18600 45100 50900
2020-08-08 09:00 6.46 9080 50900 (2019) 3620 (2016) 22900 3620 5090 18600 45100 50900
2020-08-08 08:00 6.97 10300 50900 (2019) 3620 (2016) 22900 3620 5090 18600 45100 50900
2020-08-08 07:00 7.51 11600 50900 (2019) 3620 (2016) 22900 3620 5090 18600 45100 50900
2020-08-08 06:00 8.12 13200 50900 (2019) 3620 (2016) 22900 3620 5090 18600 45100 50900
2020-08-08 05:00 8.76 14900 50900 (2019) 3620 (2016) 22900 3620 5090 18600 45100 50900
2020-08-08 04:00 9.40 16700 50900 (2019) 3620 (2016) 22900 3620 5090 18600 45100 50900
2020-08-08 03:00 9.99 18400 50900 (2019) 3620 (2016) 22900 3620 5090 18600 45100 50900
2020-08-08 02:00 10.74 20500 50900 (2019) 3620 (2016) 22900 3620 5090 18600 45100 50900
2020-08-08 01:00 11.66 23000 50900 (2019) 3620 (2016) 22900 3620 5090 18600 45100 50900
2020-08-08 00:00 12.54 25500 50900 (2019) 3620 (2016) 22900 3620 5090 18600 45100 50900
2020-08-07 23:00 13.04 27000 51000 (2019) 2940 (2016) 24700 2940 3240 22400 48400 51000
2020-08-07 22:00 13.17 27300 51000 (2019) 2940 (2016) 24700 2940 3240 22400 48400 51000
2020-08-07 21:00 13.12 27200 51000 (2019) 2940 (2016) 24700 2940 3240 22400 48400 51000
2020-08-07 20:00 13.10 27100 51000 (2019) 2940 (2016) 24700 2940 3240 22400 48400 51000
2020-08-07 19:00 12.80 26300 51000 (2019) 2940 (2016) 24700 2940 3240 22400 48400 51000
2020-08-07 18:00 11.97 23900 51000 (2019) 2940 (2016) 24700 2940 3240 22400 48400 51000
2020-08-07 17:00 10.85 20800 51000 (2019) 2940 (2016) 24700 2940 3240 22400 48400 51000
2020-08-07 16:00 9.69 17600 51000 (2019) 2940 (2016) 24700 2940 3240 22400 48400 51000
2020-08-07 15:00 8.85 15100 51000 (2019) 2940 (2016) 24700 2940 3240 22400 48400 51000
2020-08-07 14:00 8.26 13500 51000 (2019) 2940 (2016) 24700 2940 3240 22400 48400 51000
2020-08-07 13:00 7.93 12700 51000 (2019) 2940 (2016) 24700 2940 3240 22400 48400 51000
2020-08-07 12:00 7.61 11800 51000 (2019) 2940 (2016) 24700 2940 3240 22400 48400 51000
2020-08-07 11:00 7.35 11200 51000 (2019) 2940 (2016) 24700 2940 3240 22400 48400 51000
2020-08-07 10:00 7.54 11700 51000 (2019) 2940 (2016) 24700 2940 3240 22400 48400 51000
2020-08-07 09:00 8.09 13100 51000 (2019) 2940 (2016) 24700 2940 3240 22400 48400 51000
2020-08-07 08:00 8.79 15000 51000 (2019) 2940 (2016) 24700 2940 3240 22400 48400 51000
2020-08-07 07:00 9.55 17100 51000 (2019) 2940 (2016) 24700 2940 3240 22400 48400 51000
2020-08-07 06:00 10.39 19600 51000 (2019) 2940 (2016) 24700 2940 3240 22400 48400 51000
2020-08-07 05:00 11.34 22200 51000 (2019) 2940 (2016) 24700 2940 3240 22400 48400 51000
2020-08-07 04:00 12.36 25000 51000 (2019) 2940 (2016) 24700 2940 3240 22400 48400 51000
2020-08-07 03:00 13.48 28200 51000 (2019) 2940 (2016) 24700 2940 3240 22400 48400 51000
2020-08-07 02:00 14.66 31800 51000 (2019) 2940 (2016) 24700 2940 3240 22400 48400 51000
2020-08-07 01:00 15.81 35400 51000 (2019) 2940 (2016) 24700 2940 3240 22400 48400 51000
2020-08-07 00:00 15.99 35900 51000 (2019) 2940 (2016) 24700 2940 3240 22400 48400 51000
2020-08-06 23:00 15.94 35800 51000 (2019) 8390 (2018) 27800 8390 8440 26000 49100 51000
2020-08-06 22:00 15.86 35500 51000 (2019) 8390 (2018) 27800 8390 8440 26000 49100 51000
2020-08-06 21:00 15.82 35400 51000 (2019) 8390 (2018) 27800 8390 8440 26000 49100 51000
2020-08-06 20:00 15.76 35200 51000 (2019) 8390 (2018) 27800 8390 8440 26000 49100 51000
2020-08-06 19:00 15.67 34900 51000 (2019) 8390 (2018) 27800 8390 8440 26000 49100 51000
2020-08-06 18:00 15.52 34400 51000 (2019) 8390 (2018) 27800 8390 8440 26000 49100 51000
2020-08-06 17:00 15.32 33800 51000 (2019) 8390 (2018) 27800 8390 8440 26000 49100 51000
2020-08-06 16:00 15.09 33100 51000 (2019) 8390 (2018) 27800 8390 8440 26000 49100 51000
2020-08-06 15:00 14.82 32300 51000 (2019) 8390 (2018) 27800 8390 8440 26000 49100 51000
2020-08-06 14:00 14.49 31300 51000 (2019) 8390 (2018) 27800 8390 8440 26000 49100 51000
2020-08-06 13:00 14.07 30000 51000 (2019) 8390 (2018) 27800 8390 8440 26000 49100 51000
2020-08-06 12:00 13.56 28500 51000 (2019) 8390 (2018) 27800 8390 8440 26000 49100 51000
2020-08-06 11:00 12.95 26700 51000 (2019) 8390 (2018) 27800 8390 8440 26000 49100 51000
2020-08-06 10:00 12.28 24800 51000 (2019) 8390 (2018) 27800 8390 8440 26000 49100 51000
2020-08-06 09:00 11.86 23600 51000 (2019) 8390 (2018) 27800 8390 8440 26000 49100 51000
2020-08-06 08:00 12.04 24100 51000 (2019) 8390 (2018) 27800 8390 8440 26000 49100 51000
2020-08-06 07:00 12.08 24200 51000 (2019) 8390 (2018) 27800 8390 8440 26000 49100 51000
2020-08-06 06:00 11.81 23400 51000 (2019) 8390 (2018) 27800 8390 8440 26000 49100 51000
2020-08-06 05:00 12.27 24700 51000 (2019) 8390 (2018) 27800 8390 8440 26000 49100 51000
2020-08-06 04:00 13.31 27700 51000 (2019) 8390 (2018) 27800 8390 8440 26000 49100 51000
2020-08-06 03:00 14.22 30400 51000 (2019) 8390 (2018) 27800 8390 8440 26000 49100 51000
2020-08-06 02:00 14.14 30200 51000 (2019) 8390 (2018) 27800 8390 8440 26000 49100 51000
2020-08-06 01:00 14.24 30500 51000 (2019) 8390 (2018) 27800 8390 8440 26000 49100 51000
2020-08-06 00:00 14.34 30800 51000 (2019) 8390 (2018) 27800 8390 8440 26000 49100 51000
2020-08-05 23:00 14.56 31500 51000 (2019) 998 (2018) 19800 998 1970 13500 43800 51000
2020-08-05 22:00 14.66 31800 51000 (2019) 998 (2018) 19800 998 1970 13500 43800 51000
2020-08-05 21:00 14.66 31800 51000 (2019) 998 (2018) 19800 998 1970 13500 43800 51000
2020-08-05 20:00 14.99 32800 51000 (2019) 998 (2018) 19800 998 1970 13500 43800 51000
2020-08-05 19:00 14.96 32700 51000 (2019) 998 (2018) 19800 998 1970 13500 43800 51000
2020-08-05 18:00 14.71 31900 51000 (2019) 998 (2018) 19800 998 1970 13500 43800 51000
2020-08-05 17:00 14.40 31000 51000 (2019) 998 (2018) 19800 998 1970 13500 43800 51000
2020-08-05 16:00 13.99 29800 51000 (2019) 998 (2018) 19800 998 1970 13500 43800 51000
2020-08-05 15:00 13.49 28300 51000 (2019) 998 (2018) 19800 998 1970 13500 43800 51000
2020-08-05 14:00 12.79 26200 51000 (2019) 998 (2018) 19800 998 1970 13500 43800 51000
2020-08-05 13:00 11.95 23800 51000 (2019) 998 (2018) 19800 998 1970 13500 43800 51000
2020-08-05 12:00 10.84 20800 51000 (2019) 998 (2018) 19800 998 1970 13500 43800 51000
2020-08-05 11:00 9.75 17700 51000 (2019) 998 (2018) 19800 998 1970 13500 43800 51000
2020-08-05 10:00 9.03 15600 51000 (2019) 998 (2018) 19800 998 1970 13500 43800 51000
2020-08-05 09:00 8.64 14600 51000 (2019) 998 (2018) 19800 998 1970 13500 43800 51000
2020-08-05 08:00 8.42 14000 51000 (2019) 998 (2018) 19800 998 1970 13500 43800 51000
2020-08-05 07:00 8.64 14600 51000 (2019) 998 (2018) 19800 998 1970 13500 43800 51000
2020-08-05 06:00 9.27 16300 51000 (2019) 998 (2018) 19800 998 1970 13500 43800 51000
2020-08-05 05:00 10.09 18800 51000 (2019) 998 (2018) 19800 998 1970 13500 43800 51000
2020-08-05 04:00 11.01 21300 51000 (2019) 998 (2018) 19800 998 1970 13500 43800 51000
2020-08-05 03:00 12.00 24000 51000 (2019) 998 (2018) 19800 998 1970 13500 43800 51000
2020-08-05 02:00 13.07 27000 51000 (2019) 998 (2018) 19800 998 1970 13500 43800 51000
2020-08-05 01:00 14.12 30100 51000 (2019) 998 (2018) 19800 998 1970 13500 43800 51000
2020-08-05 00:00 14.56 31500 51000 (2019) 998 (2018) 19800 998 1970 13500 43800 51000
2020-08-04 23:00 14.97 32700 51000 (2019) 994 (2018) 21600 994 2250 17200 45400 51000
2020-08-04 22:00 15.41 34100 51000 (2019) 994 (2018) 21600 994 2250 17200 45400 51000
2020-08-04 21:00 15.39 34000 51000 (2019) 994 (2018) 21600 994 2250 17200 45400 51000
2020-08-04 20:00 15.21 33500 51000 (2019) 994 (2018) 21600 994 2250 17200 45400 51000
2020-08-04 19:00 14.96 32700 51000 (2019) 994 (2018) 21600 994 2250 17200 45400 51000
2020-08-04 18:00 14.76 32100 51000 (2019) 994 (2018) 21600 994 2250 17200 45400 51000
2020-08-04 17:00 14.44 31100 51000 (2019) 994 (2018) 21600 994 2250 17200 45400 51000
2020-08-04 16:00 14.03 29900 51000 (2019) 994 (2018) 21600 994 2250 17200 45400 51000
2020-08-04 15:00 13.49 28300 51000 (2019) 994 (2018) 21600 994 2250 17200 45400 51000
2020-08-04 14:00 12.83 26300 51000 (2019) 994 (2018) 21600 994 2250 17200 45400 51000
2020-08-04 13:00 11.97 23900 51000 (2019) 994 (2018) 21600 994 2250 17200 45400 51000
2020-08-04 12:00 10.87 20900 51000 (2019) 994 (2018) 21600 994 2250 17200 45400 51000
2020-08-04 11:00 9.62 17300 51000 (2019) 994 (2018) 21600 994 2250 17200 45400 51000
2020-08-04 10:00 8.84 15100 51000 (2019) 994 (2018) 21600 994 2250 17200 45400 51000
2020-08-04 09:00 8.56 14300 51000 (2019) 994 (2018) 21600 994 2250 17200 45400 51000
2020-08-04 08:00 8.36 13800 51000 (2019) 994 (2018) 21600 994 2250 17200 45400 51000
2020-08-04 07:00 8.30 13600 51000 (2019) 994 (2018) 21600 994 2250 17200 45400 51000
2020-08-04 06:00 8.35 13800 51000 (2019) 994 (2018) 21600 994 2250 17200 45400 51000
2020-08-04 05:00 8.92 15300 51000 (2019) 994 (2018) 21600 994 2250 17200 45400 51000
2020-08-04 04:00 9.71 17600 51000 (2019) 994 (2018) 21600 994 2250 17200 45400 51000
2020-08-04 03:00 10.53 20000 51000 (2019) 994 (2018) 21600 994 2250 17200 45400 51000
2020-08-04 02:00 11.28 22000 51000 (2019) 994 (2018) 21600 994 2250 17200 45400 51000
2020-08-04 01:00 11.77 23300 51000 (2019) 994 (2018) 21600 994 2250 17200 45400 51000
2020-08-04 00:00 12.83 26300 51000 (2019) 994 (2018) 21600 994 2250 17200 45400 51000
2020-08-03 23:00 13.84 29300 51100 (2019) 1390 (2018) 23200 1390 5170 20200 44300 51100
2020-08-03 22:00 14.21 30400 51100 (2019) 1390 (2018) 23200 1390 5170 20200 44300 51100
2020-08-03 21:00 14.38 30900 51100 (2019) 1390 (2018) 23200 1390 5170 20200 44300 51100
2020-08-03 20:00 14.07 30000 51100 (2019) 1390 (2018) 23200 1390 5170 20200 44300 51100
2020-08-03 19:00 13.71 28900 51100 (2019) 1390 (2018) 23200 1390 5170 20200 44300 51100
2020-08-03 18:00 13.14 27200 51100 (2019) 1390 (2018) 23200 1390 5170 20200 44300 51100
2020-08-03 17:00 12.39 25100 51100 (2019) 1390 (2018) 23200 1390 5170 20200 44300 51100
2020-08-03 16:00 11.36 22200 51100 (2019) 1390 (2018) 23200 1390 5170 20200 44300 51100
2020-08-03 15:00 9.95 18300 51100 (2019) 1390 (2018) 23200 1390 5170 20200 44300 51100
2020-08-03 14:00 8.06 13000 51100 (2019) 1390 (2018) 23200 1390 5170 20200 44300 51100
2020-08-03 13:00 5.68 7380 51100 (2019) 1390 (2018) 23200 1390 5170 20200 44300 51100
2020-08-03 12:00 2.65 2360 51100 (2019) 1390 (2018) 23200 1390 5170 20200 44300 51100
2020-08-03 11:00 1.97 1570 51100 (2019) 1390 (2018) 23200 1390 5170 20200 44300 51100
2020-08-03 10:00 1.94 1540 51100 (2019) 1390 (2018) 23200 1390 5170 20200 44300 51100
2020-08-03 09:00 1.94 1540 51100 (2019) 1390 (2018) 23200 1390 5170 20200 44300 51100
2020-08-03 08:00 1.94 1540 51100 (2019) 1390 (2018) 23200 1390 5170 20200 44300 51100
2020-08-03 07:00 1.93 1520 51100 (2019) 1390 (2018) 23200 1390 5170 20200 44300 51100
2020-08-03 06:00 1.94 1540 51100 (2019) 1390 (2018) 23200 1390 5170 20200 44300 51100
2020-08-03 05:00 1.94 1540 51100 (2019) 1390 (2018) 23200 1390 5170 20200 44300 51100
2020-08-03 04:00 1.95 1550 51100 (2019) 1390 (2018) 23200 1390 5170 20200 44300 51100
2020-08-03 03:00 1.96 1560 51100 (2019) 1390 (2018) 23200 1390 5170 20200 44300 51100
2020-08-03 02:00 1.97 1570 51100 (2019) 1390 (2018) 23200 1390 5170 20200 44300 51100
2020-08-03 01:00 1.99 1590 51100 (2019) 1390 (2018) 23200 1390 5170 20200 44300 51100
2020-08-03 00:00 2.00 1600 51100 (2019) 1390 (2018) 23200 1390 5170 20200 44300 51100
2020-08-02 23:00 2.02 1620 51100 (2019) 1140 (2018) 23000 1140 4460 19900 44700 51100
2020-08-02 22:00 2.03 1630 51100 (2019) 1140 (2018) 23000 1140 4460 19900 44700 51100
2020-08-02 21:00 2.05 1650 51100 (2019) 1140 (2018) 23000 1140 4460 19900 44700 51100
2020-08-02 20:00 2.06 1670 51100 (2019) 1140 (2018) 23000 1140 4460 19900 44700 51100
2020-08-02 19:00 2.05 1650 51100 (2019) 1140 (2018) 23000 1140 4460 19900 44700 51100
2020-08-02 18:00 2.02 1620 51100 (2019) 1140 (2018) 23000 1140 4460 19900 44700 51100
2020-08-02 17:00 2.02 1620 51100 (2019) 1140 (2018) 23000 1140 4460 19900 44700 51100
2020-08-02 16:00 2.00 1600 51100 (2019) 1140 (2018) 23000 1140 4460 19900 44700 51100
2020-08-02 15:00 2.00 1600 51100 (2019) 1140 (2018) 23000 1140 4460 19900 44700 51100
2020-08-02 14:00 2.00 1600 51100 (2019) 1140 (2018) 23000 1140 4460 19900 44700 51100
2020-08-02 13:00 2.00 1600 51100 (2019) 1140 (2018) 23000 1140 4460 19900 44700 51100
2020-08-02 12:00 2.00 1600 51100 (2019) 1140 (2018) 23000 1140 4460 19900 44700 51100
2020-08-02 11:00 2.00 1600 51100 (2019) 1140 (2018) 23000 1140 4460 19900 44700 51100
2020-08-02 10:00 2.01 1610 51100 (2019) 1140 (2018) 23000 1140 4460 19900 44700 51100
2020-08-02 09:00 2.01 1610 51100 (2019) 1140 (2018) 23000 1140 4460 19900 44700 51100
2020-08-02 08:00 2.01 1610 51100 (2019) 1140 (2018) 23000 1140 4460 19900 44700 51100
2020-08-02 07:00 2.02 1620 51100 (2019) 1140 (2018) 23000 1140 4460 19900 44700 51100
2020-08-02 06:00 2.03 1630 51100 (2019) 1140 (2018) 23000 1140 4460 19900 44700 51100
2020-08-02 05:00 2.04 1640 51100 (2019) 1140 (2018) 23000 1140 4460 19900 44700 51100
2020-08-02 04:00 2.05 1650 51100 (2019) 1140 (2018) 23000 1140 4460 19900 44700 51100
2020-08-02 03:00 2.08 1690 51100 (2019) 1140 (2018) 23000 1140 4460 19900 44700 51100
2020-08-02 02:00 2.10 1710 51100 (2019) 1140 (2018) 23000 1140 4460 19900 44700 51100
2020-08-02 01:00 2.13 1740 51100 (2019) 1140 (2018) 23000 1140 4460 19900 44700 51100
2020-08-02 00:00 2.17 1790 51100 (2019) 1140 (2018) 23000 1140 4460 19900 44700 51100
2020-08-01 23:00 2.20 1820 51100 (2019) 991 (2018) 18900 991 2760 11700 42100 51100
2020-08-01 22:00 2.26 1890 51100 (2019) 991 (2018) 18900 991 2760 11700 42100 51100
2020-08-01 21:00 2.32 1960 51100 (2019) 991 (2018) 18900 991 2760 11700 42100 51100
2020-08-01 20:00 2.40 2050 51100 (2019) 991 (2018) 18900 991 2760 11700 42100 51100
2020-08-01 19:00 2.49 2160 51100 (2019) 991 (2018) 18900 991 2760 11700 42100 51100
2020-08-01 18:00 2.59 2280 51100 (2019) 991 (2018) 18900 991 2760 11700 42100 51100
2020-08-01 17:00 2.70 2420 51100 (2019) 991 (2018) 18900 991 2760 11700 42100 51100
2020-08-01 16:00 2.83 2580 51100 (2019) 991 (2018) 18900 991 2760 11700 42100 51100
2020-08-01 15:00 2.99 2790 51100 (2019) 991 (2018) 18900 991 2760 11700 42100 51100
2020-08-01 14:00 3.17 3030 51100 (2019) 991 (2018) 18900 991 2760 11700 42100 51100
2020-08-01 13:00 3.38 3320 51100 (2019) 991 (2018) 18900 991 2760 11700 42100 51100
2020-08-01 12:00 3.60 3630 51100 (2019) 991 (2018) 18900 991 2760 11700 42100 51100
2020-08-01 11:00 3.86 4070 51100 (2019) 991 (2018) 18900 991 2760 11700 42100 51100
2020-08-01 10:00 4.15 4570 51100 (2019) 991 (2018) 18900 991 2760 11700 42100 51100
2020-08-01 09:00 4.48 5100 51100 (2019) 991 (2018) 18900 991 2760 11700 42100 51100
2020-08-01 08:00 4.85 5750 51100 (2019) 991 (2018) 18900 991 2760 11700 42100 51100
2020-08-01 07:00 5.25 6510 51100 (2019) 991 (2018) 18900 991 2760 11700 42100 51100
2020-08-01 06:00 5.70 7430 51100 (2019) 991 (2018) 18900 991 2760 11700 42100 51100
2020-08-01 05:00 6.18 8460 51100 (2019) 991 (2018) 18900 991 2760 11700 42100 51100
2020-08-01 04:00 6.71 9660 51100 (2019) 991 (2018) 18900 991 2760 11700 42100 51100
2020-08-01 03:00 7.28 11000 51100 (2019) 991 (2018) 18900 991 2760 11700 42100 51100
2020-08-01 02:00 7.90 12600 51100 (2019) 991 (2018) 18900 991 2760 11700 42100 51100
2020-08-01 01:00 8.55 14300 51100 (2019) 991 (2018) 18900 991 2760 11700 42100 51100
2020-08-01 00:00 9.23 16200 51100 (2019) 991 (2018) 18900 991 2760 11700 42100 51100
2020-07-31 23:00 9.84 18000 51200 (2019) 990 (2018) 15000 990 1240 3840 39800 51200
2020-07-31 22:00 10.15 18900 51200 (2019) 990 (2018) 15000 990 1240 3840 39800 51200
2020-07-31 21:00 9.77 17800 51200 (2019) 990 (2018) 15000 990 1240 3840 39800 51200
2020-07-31 20:00 9.47 16900 51200 (2019) 990 (2018) 15000 990 1240 3840 39800 51200
2020-07-31 19:00 9.28 16400 51200 (2019) 990 (2018) 15000 990 1240 3840 39800 51200
2020-07-31 18:00 8.34 13700 51200 (2019) 990 (2018) 15000 990 1240 3840 39800 51200
2020-07-31 17:00 7.26 11000 51200 (2019) 990 (2018) 15000 990 1240 3840 39800 51200
2020-07-31 16:00 5.90 7850 51200 (2019) 990 (2018) 15000 990 1240 3840 39800 51200
2020-07-31 15:00 4.14 4550 51200 (2019) 990 (2018) 15000 990 1240 3840 39800 51200
2020-07-31 14:00 3.21 3090 51200 (2019) 990 (2018) 15000 990 1240 3840 39800 51200
2020-07-31 13:00 3.17 3030 51200 (2019) 990 (2018) 15000 990 1240 3840 39800 51200
2020-07-31 12:00 3.37 3310 51200 (2019) 990 (2018) 15000 990 1240 3840 39800 51200
2020-07-31 11:00 3.61 3650 51200 (2019) 990 (2018) 15000 990 1240 3840 39800 51200
2020-07-31 10:00 3.90 4140 51200 (2019) 990 (2018) 15000 990 1240 3840 39800 51200
2020-07-31 09:00 4.22 4680 51200 (2019) 990 (2018) 15000 990 1240 3840 39800 51200
2020-07-31 08:00 4.58 5270 51200 (2019) 990 (2018) 15000 990 1240 3840 39800 51200
2020-07-31 07:00 4.98 5990 51200 (2019) 990 (2018) 15000 990 1240 3840 39800 51200
2020-07-31 06:00 5.41 6830 51200 (2019) 990 (2018) 15000 990 1240 3840 39800 51200
2020-07-31 05:00 5.89 7830 51200 (2019) 990 (2018) 15000 990 1240 3840 39800 51200
2020-07-31 04:00 6.39 8930 51200 (2019) 990 (2018) 15000 990 1240 3840 39800 51200
2020-07-31 03:00 6.95 10200 51200 (2019) 990 (2018) 15000 990 1240 3840 39800 51200
2020-07-31 02:00 7.55 11700 51200 (2019) 990 (2018) 15000 990 1240 3840 39800 51200
2020-07-31 01:00 8.20 13400 51200 (2019) 990 (2018) 15000 990 1240 3840 39800 51200
2020-07-31 00:00 8.89 15200 51200 (2019) 990 (2018) 15000 990 1240 3840 39800 51200
2020-07-30 23:00 9.56 17200 51300 (2019) 973 (2018) 14600 973 1040 3160 39700 51300
2020-07-30 22:00 10.05 18600 51300 (2019) 973 (2018) 14600 973 1040 3160 39700 51300
2020-07-30 21:00 10.40 19600 51300 (2019) 973 (2018) 14600 973 1040 3160 39700 51300
2020-07-30 20:00 10.88 20900 51300 (2019) 973 (2018) 14600 973 1040 3160 39700 51300
2020-07-30 19:00 10.37 19500 51300 (2019) 973 (2018) 14600 973 1040 3160 39700 51300
2020-07-30 18:00 9.17 16000 51300 (2019) 973 (2018) 14600 973 1040 3160 39700 51300
2020-07-30 17:00 7.94 12700 51300 (2019) 973 (2018) 14600 973 1040 3160 39700 51300
2020-07-30 16:00 6.70 9640 51300 (2019) 973 (2018) 14600 973 1040 3160 39700 51300
2020-07-30 15:00 5.03 6090 51300 (2019) 973 (2018) 14600 973 1040 3160 39700 51300
2020-07-30 14:00 3.58 3600 51300 (2019) 973 (2018) 14600 973 1040 3160 39700 51300
2020-07-30 13:00 3.10 2940 51300 (2019) 973 (2018) 14600 973 1040 3160 39700 51300
2020-07-30 12:00 3.22 3100 51300 (2019) 973 (2018) 14600 973 1040 3160 39700 51300
2020-07-30 11:00 3.47 3450 51300 (2019) 973 (2018) 14600 973 1040 3160 39700 51300
2020-07-30 10:00 3.74 3860 51300 (2019) 973 (2018) 14600 973 1040 3160 39700 51300
2020-07-30 09:00 4.05 4410 51300 (2019) 973 (2018) 14600 973 1040 3160 39700 51300
2020-07-30 08:00 4.38 4940 51300 (2019) 973 (2018) 14600 973 1040 3160 39700 51300
2020-07-30 07:00 4.76 5590 51300 (2019) 973 (2018) 14600 973 1040 3160 39700 51300
2020-07-30 06:00 5.15 6320 51300 (2019) 973 (2018) 14600 973 1040 3160 39700 51300
2020-07-30 05:00 5.59 7200 51300 (2019) 973 (2018) 14600 973 1040 3160 39700 51300
2020-07-30 04:00 6.05 8170 51300 (2019) 973 (2018) 14600 973 1040 3160 39700 51300
2020-07-30 03:00 6.53 9240 51300 (2019) 973 (2018) 14600 973 1040 3160 39700 51300
2020-07-30 02:00 6.98 10300 51300 (2019) 973 (2018) 14600 973 1040 3160 39700 51300
2020-07-30 01:00 7.41 11300 51300 (2019) 973 (2018) 14600 973 1040 3160 39700 51300
2020-07-30 00:00 7.90 12600 51300 (2019) 973 (2018) 14600 973 1040 3160 39700 51300
2020-07-29 23:00 8.52 14200 51300 (2019) 971 (2018) 15600 971 1160 5030 40600 51300
2020-07-29 22:00 9.26 16300 51300 (2019) 971 (2018) 15600 971 1160 5030 40600 51300
2020-07-29 21:00 10.07 18700 51300 (2019) 971 (2018) 15600 971 1160 5030 40600 51300
2020-07-29 20:00 10.92 21000 51300 (2019) 971 (2018) 15600 971 1160 5030 40600 51300
2020-07-29 19:00 11.59 22800 51300 (2019) 971 (2018) 15600 971 1160 5030 40600 51300
2020-07-29 18:00 11.48 22500 51300 (2019) 971 (2018) 15600 971 1160 5030 40600 51300
2020-07-29 17:00 1 18500 51300 (2019) 971 (2018) 15600 971 1160 5030 40600 51300
2020-07-29 16:00 7.50 11600 51300 (2019) 971 (2018) 15600 971 1160 5030 40600 51300
2020-07-29 15:00 4.07 4440 51300 (2019) 971 (2018) 15600 971 1160 5030 40600 51300
2020-07-29 14:00 3.50 3490 51300 (2019) 971 (2018) 15600 971 1160 5030 40600 51300
2020-07-29 13:00 3.77 3910 51300 (2019) 971 (2018) 15600 971 1160 5030 40600 51300
2020-07-29 12:00 4.07 4440 51300 (2019) 971 (2018) 15600 971 1160 5030 40600 51300
2020-07-29 11:00 4.41 4990 51300 (2019) 971 (2018) 15600 971 1160 5030 40600 51300
2020-07-29 10:00 4.79 5640 51300 (2019) 971 (2018) 15600 971 1160 5030 40600 51300
2020-07-29 09:00 5.20 6410 51300 (2019) 971 (2018) 15600 971 1160 5030 40600 51300
2020-07-29 08:00 5.65 7320 51300 (2019) 971 (2018) 15600 971 1160 5030 40600 51300
2020-07-29 07:00 6.12 8330 51300 (2019) 971 (2018) 15600 971 1160 5030 40600 51300
2020-07-29 06:00 6.62 9450 51300 (2019) 971 (2018) 15600 971 1160 5030 40600 51300
2020-07-29 05:00 7.11 10600 51300 (2019) 971 (2018) 15600 971 1160 5030 40600 51300
2020-07-29 04:00 7.59 11800 51300 (2019) 971 (2018) 15600 971 1160 5030 40600 51300
2020-07-29 03:00 8.11 13100 51300 (2019) 971 (2018) 15600 971 1160 5030 40600 51300
2020-07-29 02:00 8.78 14900 51300 (2019) 971 (2018) 15600 971 1160 5030 40600 51300
2020-07-29 01:00 9.57 17200 51300 (2019) 971 (2018) 15600 971 1160 5030 40600 51300
2020-07-29 00:00 10.44 19700 51300 (2019) 971 (2018) 15600 971 1160 5030 40600 51300
2020-07-28 23:00 11.29 22000 51200 (2019) 955 (2018) 15100 955 1250 4170 40000 51200
2020-07-28 22:00 12.01 24000 51200 (2019) 955 (2018) 15100 955 1250 4170 40000 51200
2020-07-28 21:00 11.92 23800 51200 (2019) 955 (2018) 15100 955 1250 4170 40000 51200
2020-07-28 20:00 11.82 23500 51200 (2019) 955 (2018) 15100 955 1250 4170 40000 51200
2020-07-28 19:00 11.40 22300 51200 (2019) 955 (2018) 15100 955 1250 4170 40000 51200
2020-07-28 18:00 10.09 18800 51200 (2019) 955 (2018) 15100 955 1250 4170 40000 51200
2020-07-28 17:00 8.43 14000 51200 (2019) 955 (2018) 15100 955 1250 4170 40000 51200
2020-07-28 16:00 6.87 10000 51200 (2019) 955 (2018) 15100 955 1250 4170 40000 51200
2020-07-28 15:00 5.27 6550 51200 (2019) 955 (2018) 15100 955 1250 4170 40000 51200
2020-07-28 14:00 3.46 3430 51200 (2019) 955 (2018) 15100 955 1250 4170 40000 51200
2020-07-28 13:00 2.47 2140 51200 (2019) 955 (2018) 15100 955 1250 4170 40000 51200
2020-07-28 12:00 2.24 1870 51200 (2019) 955 (2018) 15100 955 1250 4170 40000 51200
2020-07-28 11:00 2.23 1860 51200 (2019) 955 (2018) 15100 955 1250 4170 40000 51200
2020-07-28 10:00 2.30 1940 51200 (2019) 955 (2018) 15100 955 1250 4170 40000 51200
2020-07-28 09:00 2.41 2070 51200 (2019) 955 (2018) 15100 955 1250 4170 40000 51200
2020-07-28 08:00 2.55 2230 51200 (2019) 955 (2018) 15100 955 1250 4170 40000 51200
2020-07-28 07:00 2.70 2420 51200 (2019) 955 (2018) 15100 955 1250 4170 40000 51200
2020-07-28 06:00 2.87 2640 51200 (2019) 955 (2018) 15100 955 1250 4170 40000 51200
2020-07-28 05:00 3.06 2880 51200 (2019) 955 (2018) 15100 955 1250 4170 40000 51200
2020-07-28 04:00 3.27 3170 51200 (2019) 955 (2018) 15100 955 1250 4170 40000 51200
2020-07-28 03:00 3.49 3480 51200 (2019) 955 (2018) 15100 955 1250 4170 40000 51200
2020-07-28 02:00 3.74 3860 51200 (2019) 955 (2018) 15100 955 1250 4170 40000 51200
2020-07-28 01:00 4.00 4320 51200 (2019) 955 (2018) 15100 955 1250 4170 40000 51200
2020-07-28 00:00 4.27 4760 51200 (2019) 955 (2018) 15100 955 1250 4170 40000 51200
2020-07-27 23:00 4.54 5200 51300 (2019) 993 (2018) 15300 993 1500 4540 40000 51300
2020-07-27 22:00 4.81 5680 51300 (2019) 993 (2018) 15300 993 1500 4540 40000 51300
2020-07-27 21:00 5.04 6110 51300 (2019) 993 (2018) 15300 993 1500 4540 40000 51300
2020-07-27 20:00 5.18 6370 51300 (2019) 993 (2018) 15300 993 1500 4540 40000 51300
2020-07-27 19:00 5.09 6200 51300 (2019) 993 (2018) 15300 993 1500 4540 40000 51300
2020-07-27 18:00 4.40 4970 51300 (2019) 993 (2018) 15300 993 1500 4540 40000 51300
2020-07-27 17:00 2.79 2530 51300 (2019) 993 (2018) 15300 993 1500 4540 40000 51300
2020-07-27 16:00 1.81 1400 51300 (2019) 993 (2018) 15300 993 1500 4540 40000 51300
2020-07-27 15:00 1.75 1340 51300 (2019) 993 (2018) 15300 993 1500 4540 40000 51300
2020-07-27 14:00 1.76 1350 51300 (2019) 993 (2018) 15300 993 1500 4540 40000 51300
2020-07-27 13:00 1.78 1370 51300 (2019) 993 (2018) 15300 993 1500 4540 40000 51300
2020-07-27 12:00 1.79 1380 51300 (2019) 993 (2018) 15300 993 1500 4540 40000 51300
2020-07-27 11:00 1.81 1400 51300 (2019) 993 (2018) 15300 993 1500 4540 40000 51300
2020-07-27 10:00 1.94 1540 51300 (2019) 993 (2018) 15300 993 1500 4540 40000 51300
2020-07-27 09:00 1.96 1560 51300 (2019) 993 (2018) 15300 993 1500 4540 40000 51300
2020-07-27 08:00 1.97 1570 51300 (2019) 993 (2018) 15300 993 1500 4540 40000 51300
2020-07-27 07:00 1.99 1590 51300 (2019) 993 (2018) 15300 993 1500 4540 40000 51300
2020-07-27 06:00 2.01 1610 51300 (2019) 993 (2018) 15300 993 1500 4540 40000 51300
2020-07-27 05:00 2.03 1630 51300 (2019) 993 (2018) 15300 993 1500 4540 40000 51300
2020-07-27 04:00 2.04 1640 51300 (2019) 993 (2018) 15300 993 1500 4540 40000 51300
2020-07-27 03:00 2.05 1650 51300 (2019) 993 (2018) 15300 993 1500 4540 40000 51300
2020-07-27 02:00 2.05 1650 51300 (2019) 993 (2018) 15300 993 1500 4540 40000 51300
2020-07-27 01:00 2.04 1640 51300 (2019) 993 (2018) 15300 993 1500 4540 40000 51300
2020-07-27 00:00 2.01 1610 51300 (2019) 993 (2018) 15300 993 1500 4540 40000 51300
2020-07-26 23:00 1.98 1580 51300 (2019) 3780 (2018) 17100 3780 4220 6610 40400 51300
2020-07-26 22:00 1.93 1520 51300 (2019) 3780 (2018) 17100 3780 4220 6610 40400 51300
2020-07-26 21:00 1.84 1430 51300 (2019) 3780 (2018) 17100 3780 4220 6610 40400 51300
2020-07-26 20:00 1.79 1380 51300 (2019) 3780 (2018) 17100 3780 4220 6610 40400 51300
2020-07-26 19:00 1.79 1380 51300 (2019) 3780 (2018) 17100 3780 4220 6610 40400 51300
2020-07-26 18:00 1.79 1380 51300 (2019) 3780 (2018) 17100 3780 4220 6610 40400 51300
2020-07-26 17:00 1.80 1390 51300 (2019) 3780 (2018) 17100 3780 4220 6610 40400 51300
2020-07-26 16:00 1.81 1400 51300 (2019) 3780 (2018) 17100 3780 4220 6610 40400 51300
2020-07-26 15:00 1.83 1420 51300 (2019) 3780 (2018) 17100 3780 4220 6610 40400 51300
2020-07-26 14:00 1.85 1440 51300 (2019) 3780 (2018) 17100 3780 4220 6610 40400 51300
2020-07-26 13:00 1.88 1470 51300 (2019) 3780 (2018) 17100 3780 4220 6610 40400 51300
2020-07-26 12:00 1.91 1500 51300 (2019) 3780 (2018) 17100 3780 4220 6610 40400 51300
2020-07-26 11:00 1.94 1540 51300 (2019) 3780 (2018) 17100 3780 4220 6610 40400 51300
2020-07-26 10:00 1.99 1590 51300 (2019) 3780 (2018) 17100 3780 4220 6610 40400 51300
2020-07-26 09:00 2.05 1650 51300 (2019) 3780 (2018) 17100 3780 4220 6610 40400 51300
2020-07-26 08:00 2.11 1720 51300 (2019) 3780 (2018) 17100 3780 4220 6610 40400 51300
2020-07-26 07:00 2.17 1790 51300 (2019) 3780 (2018) 17100 3780 4220 6610 40400 51300
2020-07-26 06:00 2.24 1870 51300 (2019) 3780 (2018) 17100 3780 4220 6610 40400 51300
2020-07-26 05:00 2.32 1960 51300 (2019) 3780 (2018) 17100 3780 4220 6610 40400 51300
2020-07-26 04:00 2.39 2040 51300 (2019) 3780 (2018) 17100 3780 4220 6610 40400 51300
2020-07-26 03:00 2.47 2140 51300 (2019) 3780 (2018) 17100 3780 4220 6610 40400 51300
2020-07-26 02:00 2.54 2220 51300 (2019) 3780 (2018) 17100 3780 4220 6610 40400 51300
2020-07-26 01:00 2.60 2300 51300 (2019) 3780 (2018) 17100 3780 4220 6610 40400 51300
2020-07-26 00:00 2.64 2340 51300 (2019) 3780 (2018) 17100 3780 4220 6610 40400 51300
2020-07-25 23:00 2.64 2340 51300 (2019) 1320 (2017) 15600 1320 2190 4860 39700 51300
2020-07-25 22:00 2.56 2250 51300 (2019) 1320 (2017) 15600 1320 2190 4860 39700 51300
2020-07-25 21:00 2.38 2030 51300 (2019) 1320 (2017) 15600 1320 2190 4860 39700 51300
2020-07-25 20:00 2.13 1740 51300 (2019) 1320 (2017) 15600 1320 2190 4860 39700 51300
2020-07-25 19:00 1.90 1490 51300 (2019) 1320 (2017) 15600 1320 2190 4860 39700 51300
2020-07-25 18:00 1.84 1430 51300 (2019) 1320 (2017) 15600 1320 2190 4860 39700 51300
2020-07-25 17:00 1.84 1430 51300 (2019) 1320 (2017) 15600 1320 2190 4860 39700 51300
2020-07-25 16:00 1.84 1430 51300 (2019) 1320 (2017) 15600 1320 2190 4860 39700 51300
2020-07-25 15:00 1.84 1430 51300 (2019) 1320 (2017) 15600 1320 2190 4860 39700 51300
2020-07-25 14:00 1.85 1440 51300 (2019) 1320 (2017) 15600 1320 2190 4860 39700 51300
2020-07-25 13:00 1.87 1460 51300 (2019) 1320 (2017) 15600 1320 2190 4860 39700 51300
2020-07-25 12:00 1.88 1470 51300 (2019) 1320 (2017) 15600 1320 2190 4860 39700 51300
2020-07-25 11:00 1.90 1490 51300 (2019) 1320 (2017) 15600 1320 2190 4860 39700 51300
2020-07-25 10:00 1.91 1500 51300 (2019) 1320 (2017) 15600 1320 2190 4860 39700 51300
2020-07-25 09:00 1.93 1520 51300 (2019) 1320 (2017) 15600 1320 2190 4860 39700 51300
2020-07-25 08:00 1.95 1550 51300 (2019) 1320 (2017) 15600 1320 2190 4860 39700 51300
2020-07-25 07:00 1.97 1570 51300 (2019) 1320 (2017) 15600 1320 2190 4860 39700 51300
2020-07-25 06:00 2.00 1600 51300 (2019) 1320 (2017) 15600 1320 2190 4860 39700 51300
2020-07-25 05:00 2.04 1640 51300 (2019) 1320 (2017) 15600 1320 2190 4860 39700 51300
2020-07-25 04:00 2.08 1690 51300 (2019) 1320 (2017) 15600 1320 2190 4860 39700 51300
2020-07-25 03:00 2.12 1730 51300 (2019) 1320 (2017) 15600 1320 2190 4860 39700 51300
2020-07-25 02:00 2.17 1790 51300 (2019) 1320 (2017) 15600 1320 2190 4860 39700 51300
2020-07-25 01:00 2.24 1870 51300 (2019) 1320 (2017) 15600 1320 2190 4860 39700 51300
2020-07-25 00:00 2.30 1940 51300 (2019) 1320 (2017) 15600 1320 2190 4860 39700 51300
2020-07-24 23:00 2.36 2010 51400 (2019) 1130 (2017) 14200 1130 1180 2150 39300 51400
2020-07-24 22:00 2.43 2090 51400 (2019) 1130 (2017) 14200 1130 1180 2150 39300 51400
2020-07-24 21:00 2.48 2150 51400 (2019) 1130 (2017) 14200 1130 1180 2150 39300 51400
2020-07-24 20:00 2.51 2190 51400 (2019) 1130 (2017) 14200 1130 1180 2150 39300 51400
2020-07-24 19:00 2.50 2170 51400 (2019) 1130 (2017) 14200 1130 1180 2150 39300 51400
2020-07-24 18:00 2.43 2090 51400 (2019) 1130 (2017) 14200 1130 1180 2150 39300 51400
2020-07-24 17:00 2.28 1910 51400 (2019) 1130 (2017) 14200 1130 1180 2150 39300 51400
2020-07-24 16:00 2.08 1690 51400 (2019) 1130 (2017) 14200 1130 1180 2150 39300 51400
2020-07-24 15:00 1.95 1550 51400 (2019) 1130 (2017) 14200 1130 1180 2150 39300 51400
2020-07-24 14:00 1.92 1510 51400 (2019) 1130 (2017) 14200 1130 1180 2150 39300 51400
2020-07-24 13:00 1.97 1570 51400 (2019) 1130 (2017) 14200 1130 1180 2150 39300 51400
2020-07-24 12:00 2.02 1620 51400 (2019) 1130 (2017) 14200 1130 1180 2150 39300 51400
2020-07-24 11:00 2.08 1690 51400 (2019) 1130 (2017) 14200 1130 1180 2150 39300 51400
2020-07-24 10:00 2.15 1770 51400 (2019) 1130 (2017) 14200 1130 1180 2150 39300 51400
2020-07-24 09:00 2.22 1850 51400 (2019) 1130 (2017) 14200 1130 1180 2150 39300 51400
2020-07-24 08:00 2.29 1930 51400 (2019) 1130 (2017) 14200 1130 1180 2150 39300 51400
2020-07-24 07:00 2.35 2000 51400 (2019) 1130 (2017) 14200 1130 1180 2150 39300 51400
2020-07-24 06:00 2.40 2050 51400 (2019) 1130 (2017) 14200 1130 1180 2150 39300 51400
2020-07-24 05:00 2.43 2090 51400 (2019) 1130 (2017) 14200 1130 1180 2150 39300 51400
2020-07-24 04:00 2.45 2110 51400 (2019) 1130 (2017) 14200 1130 1180 2150 39300 51400
2020-07-24 03:00 2.44 2100 51400 (2019) 1130 (2017) 14200 1130 1180 2150 39300 51400
2020-07-24 02:00 2.43 2090 51400 (2019) 1130 (2017) 14200 1130 1180 2150 39300 51400
2020-07-24 01:00 2.42 2080 51400 (2019) 1130 (2017) 14200 1130 1180 2150 39300 51400
2020-07-24 00:00 2.41 2070 51400 (2019) 1130 (2017) 14200 1130 1180 2150 39300 51400
2020-07-23 23:00 2.43 2090 51400 (2019) 1360 (2018) 16700 1360 1410 7020 41700 51400
2020-07-23 22:00 2.46 2130 51400 (2019) 1360 (2018) 16700 1360 1410 7020 41700 51400
2020-07-23 21:00 2.52 2200 51400 (2019) 1360 (2018) 16700 1360 1410 7020 41700 51400
2020-07-23 20:00 2.62 2320 51400 (2019) 1360 (2018) 16700 1360 1410 7020 41700 51400
2020-07-23 19:00 2.76 2490 51400 (2019) 1360 (2018) 16700 1360 1410 7020 41700 51400
2020-07-23 18:00 2.93 2710 51400 (2019) 1360 (2018) 16700 1360 1410 7020 41700 51400
2020-07-23 17:00 3.12 2960 51400 (2019) 1360 (2018) 16700 1360 1410 7020 41700 51400
2020-07-23 16:00 3.34 3260 51400 (2019) 1360 (2018) 16700 1360 1410 7020 41700 51400
2020-07-23 15:00 3.59 3620 51400 (2019) 1360 (2018) 16700 1360 1410 7020 41700 51400
2020-07-23 14:00 3.86 4070 51400 (2019) 1360 (2018) 16700 1360 1410 7020 41700 51400
2020-07-23 13:00 4.16 4590 51400 (2019) 1360 (2018) 16700 1360 1410 7020 41700 51400
2020-07-23 12:00 4.51 5150 51400 (2019) 1360 (2018) 16700 1360 1410 7020 41700 51400
2020-07-23 11:00 4.89 5830 51400 (2019) 1360 (2018) 16700 1360 1410 7020 41700 51400
2020-07-23 10:00 5.30 6610 51400 (2019) 1360 (2018) 16700 1360 1410 7020 41700 51400
2020-07-23 09:00 5.76 7550 51400 (2019) 1360 (2018) 16700 1360 1410 7020 41700 51400
2020-07-23 08:00 6.26 8630 51400 (2019) 1360 (2018) 16700 1360 1410 7020 41700 51400
2020-07-23 07:00 6.78 9820 51400 (2019) 1360 (2018) 16700 1360 1410 7020 41700 51400
2020-07-23 06:00 7.35 11200 51400 (2019) 1360 (2018) 16700 1360 1410 7020 41700 51400
2020-07-23 05:00 7.94 12700 51400 (2019) 1360 (2018) 16700 1360 1410 7020 41700 51400
2020-07-23 04:00 8.54 14300 51400 (2019) 1360 (2018) 16700 1360 1410 7020 41700 51400
2020-07-23 03:00 9.08 15800 51400 (2019) 1360 (2018) 16700 1360 1410 7020 41700 51400
2020-07-23 02:00 9.35 16600 51400 (2019) 1360 (2018) 16700 1360 1410 7020 41700 51400
2020-07-23 01:00 8.57 14400 51400 (2019) 1360 (2018) 16700 1360 1410 7020 41700 51400
2020-07-23 00:00 5.67 7360 51400 (2019) 1360 (2018) 16700 1360 1410 7020 41700 51400
2020-07-22 23:00 4.49 5120 51100 (2019) 1460 (2018) 19600 1460 2170 13000 43800 51100
2020-07-22 22:00 4.72 5520 51100 (2019) 1460 (2018) 19600 1460 2170 13000 43800 51100
2020-07-22 21:00 4.99 6010 51100 (2019) 1460 (2018) 19600 1460 2170 13000 43800 51100
2020-07-22 20:00 5.24 6490 51100 (2019) 1460 (2018) 19600 1460 2170 13000 43800 51100
2020-07-22 19:00 5.40 6810 51100 (2019) 1460 (2018) 19600 1460 2170 13000 43800 51100
2020-07-22 18:00 5.41 6830 51100 (2019) 1460 (2018) 19600 1460 2170 13000 43800 51100
2020-07-22 17:00 5.24 6490 51100 (2019) 1460 (2018) 19600 1460 2170 13000 43800 51100
2020-07-22 16:00 4.91 5860 51100 (2019) 1460 (2018) 19600 1460 2170 13000 43800 51100
2020-07-22 15:00 4.53 5180 51100 (2019) 1460 (2018) 19600 1460 2170 13000 43800 51100
2020-07-22 14:00 4.44 5040 51100 (2019) 1460 (2018) 19600 1460 2170 13000 43800 51100
2020-07-22 13:00 4.50 5130 51100 (2019) 1460 (2018) 19600 1460 2170 13000 43800 51100
2020-07-22 12:00 4.67 5430 51100 (2019) 1460 (2018) 19600 1460 2170 13000 43800 51100
2020-07-22 11:00 4.97 5980 51100 (2019) 1460 (2018) 19600 1460 2170 13000 43800 51100
2020-07-22 10:00 5.37 6750 51100 (2019) 1460 (2018) 19600 1460 2170 13000 43800 51100
2020-07-22 09:00 5.84 7720 51100 (2019) 1460 (2018) 19600 1460 2170 13000 43800 51100
2020-07-22 08:00 6.35 8840 51100 (2019) 1460 (2018) 19600 1460 2170 13000 43800 51100
2020-07-22 07:00 6.91 10100 51100 (2019) 1460 (2018) 19600 1460 2170 13000 43800 51100
2020-07-22 06:00 7.53 11600 51100 (2019) 1460 (2018) 19600 1460 2170 13000 43800 51100
2020-07-22 05:00 8.20 13400 51100 (2019) 1460 (2018) 19600 1460 2170 13000 43800 51100
2020-07-22 04:00 8.94 15400 51100 (2019) 1460 (2018) 19600 1460 2170 13000 43800 51100
2020-07-22 03:00 9.75 17700 51100 (2019) 1460 (2018) 19600 1460 2170 13000 43800 51100
2020-07-22 02:00 10.65 20300 51100 (2019) 1460 (2018) 19600 1460 2170 13000 43800 51100
2020-07-22 01:00 11.62 22900 51100 (2019) 1460 (2018) 19600 1460 2170 13000 43800 51100
2020-07-22 00:00 12.64 25800 51100 (2019) 1460 (2018) 19600 1460 2170 13000 43800 51100
2020-07-21 23:00 13.51 28300 50700 (2019) 6680 (2018) 22700 6680 7910 16700 43400 50700
2020-07-21 22:00 13.55 28400 50700 (2019) 6680 (2018) 22700 6680 7910 16700 43400 50700
2020-07-21 21:00 13.46 28200 50700 (2019) 6680 (2018) 22700 6680 7910 16700 43400 50700
2020-07-21 20:00 13.15 27300 50700 (2019) 6680 (2018) 22700 6680 7910 16700 43400 50700
2020-07-21 19:00 12.87 26500 50700 (2019) 6680 (2018) 22700 6680 7910 16700 43400 50700
2020-07-21 18:00 12.09 24200 50700 (2019) 6680 (2018) 22700 6680 7910 16700 43400 50700
2020-07-21 17:00 10.98 21200 50700 (2019) 6680 (2018) 22700 6680 7910 16700 43400 50700
2020-07-21 16:00 9.77 17800 50700 (2019) 6680 (2018) 22700 6680 7910 16700 43400 50700
2020-07-21 15:00 8.74 14800 50700 (2019) 6680 (2018) 22700 6680 7910 16700 43400 50700
2020-07-21 14:00 7.22 10900 50700 (2019) 6680 (2018) 22700 6680 7910 16700 43400 50700
2020-07-21 13:00 5.45 6910 50700 (2019) 6680 (2018) 22700 6680 7910 16700 43400 50700
2020-07-21 12:00 3.84 4040 50700 (2019) 6680 (2018) 22700 6680 7910 16700 43400 50700
2020-07-21 11:00 3.14 2990 50700 (2019) 6680 (2018) 22700 6680 7910 16700 43400 50700
2020-07-21 10:00 3.15 3000 50700 (2019) 6680 (2018) 22700 6680 7910 16700 43400 50700
2020-07-21 09:00 3.36 3290 50700 (2019) 6680 (2018) 22700 6680 7910 16700 43400 50700
2020-07-21 08:00 3.59 3620 50700 (2019) 6680 (2018) 22700 6680 7910 16700 43400 50700
2020-07-21 07:00 3.84 4040 50700 (2019) 6680 (2018) 22700 6680 7910 16700 43400 50700
2020-07-21 06:00 4.13 4540 50700 (2019) 6680 (2018) 22700 6680 7910 16700 43400 50700
2020-07-21 05:00 4.45 5050 50700 (2019) 6680 (2018) 22700 6680 7910 16700 43400 50700
2020-07-21 04:00 4.80 5660 50700 (2019) 6680 (2018) 22700 6680 7910 16700 43400 50700
2020-07-21 03:00 5.19 6390 50700 (2019) 6680 (2018) 22700 6680 7910 16700 43400 50700
2020-07-21 02:00 5.62 7260 50700 (2019) 6680 (2018) 22700 6680 7910 16700 43400 50700
2020-07-21 01:00 6.08 8240 50700 (2019) 6680 (2018) 22700 6680 7910 16700 43400 50700
2020-07-21 00:00 6.56 9310 50700 (2019) 6680 (2018) 22700 6680 7910 16700 43400 50700
2020-07-20 23:00 7.07 10500 50500 (2019) 11100 (2017) 23300 11100 12200 15800 41800 50500
2020-07-20 22:00 7.59 11800 50500 (2019) 11100 (2017) 23300 11100 12200 15800 41800 50500
2020-07-20 21:00 8.08 13100 50500 (2019) 11100 (2017) 23300 11100 12200 15800 41800 50500
2020-07-20 20:00 8.43 14000 50500 (2019) 11100 (2017) 23300 11100 12200 15800 41800 50500
2020-07-20 19:00 8.30 13600 50500 (2019) 11100 (2017) 23300 11100 12200 15800 41800 50500
2020-07-20 18:00 7.40 11300 50500 (2019) 11100 (2017) 23300 11100 12200 15800 41800 50500
2020-07-20 17:00 6.26 8630 50500 (2019) 11100 (2017) 23300 11100 12200 15800 41800 50500
2020-07-20 16:00 4.52 5170 50500 (2019) 11100 (2017) 23300 11100 12200 15800 41800 50500
2020-07-20 15:00 2.97 2770 50500 (2019) 11100 (2017) 23300 11100 12200 15800 41800 50500
2020-07-20 14:00 2.41 2070 50500 (2019) 11100 (2017) 23300 11100 12200 15800 41800 50500
2020-07-20 13:00 2.34 1980 50500 (2019) 11100 (2017) 23300 11100 12200 15800 41800 50500
2020-07-20 12:00 2.34 1980 50500 (2019) 11100 (2017) 23300 11100 12200 15800 41800 50500
2020-07-20 11:00 2.34 1980 50500 (2019) 11100 (2017) 23300 11100 12200 15800 41800 50500
2020-07-20 10:00 2.34 1980 50500 (2019) 11100 (2017) 23300 11100 12200 15800 41800 50500
2020-07-20 09:00 2.33 1970 50500 (2019) 11100 (2017) 23300 11100 12200 15800 41800 50500
2020-07-20 08:00 2.33 1970 50500 (2019) 11100 (2017) 23300 11100 12200 15800 41800 50500
2020-07-20 07:00 2.32 1960 50500 (2019) 11100 (2017) 23300 11100 12200 15800 41800 50500
2020-07-20 06:00 2.32 1960 50500 (2019) 11100 (2017) 23300 11100 12200 15800 41800 50500
2020-07-20 05:00 2.32 1960 50500 (2019) 11100 (2017) 23300 11100 12200 15800 41800 50500
2020-07-20 04:00 2.31 1950 50500 (2019) 11100 (2017) 23300 11100 12200 15800 41800 50500
2020-07-20 03:00 2.32 1960 50500 (2019) 11100 (2017) 23300 11100 12200 15800 41800 50500
2020-07-20 02:00 2.31 1950 50500 (2019) 11100 (2017) 23300 11100 12200 15800 41800 50500
2020-07-20 01:00 2.31 1950 50500 (2019) 11100 (2017) 23300 11100 12200 15800 41800 50500
2020-07-20 00:00 2.32 1960 50500 (2019) 11100 (2017) 23300 11100 12200 15800 41800 50500
2020-07-19 23:00 2.32 1960 50400 (2019) 6040 (2017) 22000 6040 8030 15800 42200 50400
2020-07-19 22:00 2.33 1970 50400 (2019) 6040 (2017) 22000 6040 8030 15800 42200 50400
2020-07-19 21:00 2.33 1970 50400 (2019) 6040 (2017) 22000 6040 8030 15800 42200 50400
2020-07-19 20:00 2.34 1980 50400 (2019) 6040 (2017) 22000 6040 8030 15800 42200 50400
2020-07-19 19:00 2.33 1970 50400 (2019) 6040 (2017) 22000 6040 8030 15800 42200 50400
2020-07-19 18:00 2.33 1970 50400 (2019) 6040 (2017) 22000 6040 8030 15800 42200 50400
2020-07-19 17:00 2.32 1960 50400 (2019) 6040 (2017) 22000 6040 8030 15800 42200 50400
2020-07-19 16:00 2.32 1960 50400 (2019) 6040 (2017) 22000 6040 8030 15800 42200 50400
2020-07-19 15:00 2.33 1970 50400 (2019) 6040 (2017) 22000 6040 8030 15800 42200 50400
2020-07-19 14:00 2.33 1970 50400 (2019) 6040 (2017) 22000 6040 8030 15800 42200 50400
2020-07-19 13:00 2.32 1960 50400 (2019) 6040 (2017) 22000 6040 8030 15800 42200 50400
2020-07-19 12:00 2.33 1970 50400 (2019) 6040 (2017) 22000 6040 8030 15800 42200 50400
2020-07-19 11:00 2.33 1970 50400 (2019) 6040 (2017) 22000 6040 8030 15800 42200 50400
2020-07-19 10:00 2.33 1970 50400 (2019) 6040 (2017) 22000 6040 8030 15800 42200 50400
2020-07-19 09:00 2.33 1970 50400 (2019) 6040 (2017) 22000 6040 8030 15800 42200 50400
2020-07-19 08:00 2.32 1960 50400 (2019) 6040 (2017) 22000 6040 8030 15800 42200 50400
2020-07-19 07:00 2.32 1960 50400 (2019) 6040 (2017) 22000 6040 8030 15800 42200 50400
2020-07-19 06:00 2.32 1960 50400 (2019) 6040 (2017) 22000 6040 8030 15800 42200 50400
2020-07-19 05:00 2.33 1970 50400 (2019) 6040 (2017) 22000 6040 8030 15800 42200 50400
2020-07-19 04:00 2.32 1960 50400 (2019) 6040 (2017) 22000 6040 8030 15800 42200 50400
2020-07-19 03:00 2.32 1960 50400 (2019) 6040 (2017) 22000 6040 8030 15800 42200 50400
2020-07-19 02:00 2.33 1970 50400 (2019) 6040 (2017) 22000 6040 8030 15800 42200 50400
2020-07-19 01:00 2.33 1970 50400 (2019) 6040 (2017) 22000 6040 8030 15800 42200 50400
2020-07-19 00:00 2.33 1970 50400 (2019) 6040 (2017) 22000 6040 8030 15800 42200 50400
2020-07-18 23:00 2.34 1980 50000 (2019) 6000 (2017) 23600 6000 7950 19200 43600 50000
2020-07-18 22:00 2.35 2000 50000 (2019) 6000 (2017) 23600 6000 7950 19200 43600 50000
2020-07-18 21:00 2.37 2020 50000 (2019) 6000 (2017) 23600 6000 7950 19200 43600 50000
2020-07-18 20:00 2.39 2040 50000 (2019) 6000 (2017) 23600 6000 7950 19200 43600 50000
2020-07-18 19:00 2.42 2080 50000 (2019) 6000 (2017) 23600 6000 7950 19200 43600 50000
2020-07-18 18:00 2.47 2140 50000 (2019) 6000 (2017) 23600 6000 7950 19200 43600 50000
2020-07-18 17:00 2.53 2210 50000 (2019) 6000 (2017) 23600 6000 7950 19200 43600 50000
2020-07-18 16:00 2.61 2310 50000 (2019) 6000 (2017) 23600 6000 7950 19200 43600 50000
2020-07-18 15:00 2.69 2410 50000 (2019) 6000 (2017) 23600 6000 7950 19200 43600 50000
2020-07-18 14:00 2.79 2530 50000 (2019) 6000 (2017) 23600 6000 7950 19200 43600 50000
2020-07-18 13:00 2.91 2690 50000 (2019) 6000 (2017) 23600 6000 7950 19200 43600 50000
2020-07-18 12:00 3.05 2870 50000 (2019) 6000 (2017) 23600 6000 7950 19200 43600 50000
2020-07-18 11:00 3.22 3100 50000 (2019) 6000 (2017) 23600 6000 7950 19200 43600 50000
2020-07-18 10:00 3.41 3360 50000 (2019) 6000 (2017) 23600 6000 7950 19200 43600 50000
2020-07-18 09:00 3.62 3660 50000 (2019) 6000 (2017) 23600 6000 7950 19200 43600 50000
2020-07-18 08:00 3.85 4050 50000 (2019) 6000 (2017) 23600 6000 7950 19200 43600 50000
2020-07-18 07:00 4.12 4520 50000 (2019) 6000 (2017) 23600 6000 7950 19200 43600 50000
2020-07-18 06:00 4.42 5000 50000 (2019) 6000 (2017) 23600 6000 7950 19200 43600 50000
2020-07-18 05:00 4.76 5590 50000 (2019) 6000 (2017) 23600 6000 7950 19200 43600 50000
2020-07-18 04:00 5.14 6300 50000 (2019) 6000 (2017) 23600 6000 7950 19200 43600 50000
2020-07-18 03:00 5.55 7120 50000 (2019) 6000 (2017) 23600 6000 7950 19200 43600 50000
2020-07-18 02:00 6.00 8060 50000 (2019) 6000 (2017) 23600 6000 7950 19200 43600 50000
2020-07-18 01:00 6.48 9130 50000 (2019) 6000 (2017) 23600 6000 7950 19200 43600 50000
2020-07-18 00:00 7.01 10400 50000 (2019) 6000 (2017) 23600 6000 7950 19200 43600 50000
2020-07-17 23:00 7.54 11700 50000 (2019) 976 (2018) 19100 976 2980 12800 41600 50000
2020-07-17 22:00 8.10 13100 50000 (2019) 976 (2018) 19100 976 2980 12800 41600 50000
2020-07-17 21:00 8.62 14500 50000 (2019) 976 (2018) 19100 976 2980 12800 41600 50000
2020-07-17 20:00 9.00 15600 50000 (2019) 976 (2018) 19100 976 2980 12800 41600 50000
2020-07-17 19:00 8.76 14900 50000 (2019) 976 (2018) 19100 976 2980 12800 41600 50000
2020-07-17 18:00 7.04 10400 50000 (2019) 976 (2018) 19100 976 2980 12800 41600 50000
2020-07-17 17:00 4.41 4990 50000 (2019) 976 (2018) 19100 976 2980 12800 41600 50000
2020-07-17 16:00 3.41 3360 50000 (2019) 976 (2018) 19100 976 2980 12800 41600 50000
2020-07-17 15:00 3.34 3260 50000 (2019) 976 (2018) 19100 976 2980 12800 41600 50000
2020-07-17 14:00 3.43 3390 50000 (2019) 976 (2018) 19100 976 2980 12800 41600 50000
2020-07-17 13:00 3.51 3500 50000 (2019) 976 (2018) 19100 976 2980 12800 41600 50000
2020-07-17 12:00 3.60 3630 50000 (2019) 976 (2018) 19100 976 2980 12800 41600 50000
2020-07-17 11:00 3.71 3810 50000 (2019) 976 (2018) 19100 976 2980 12800 41600 50000
2020-07-17 10:00 3.89 4120 50000 (2019) 976 (2018) 19100 976 2980 12800 41600 50000
2020-07-17 09:00 4.14 4550 50000 (2019) 976 (2018) 19100 976 2980 12800 41600 50000
2020-07-17 08:00 4.43 5020 50000 (2019) 976 (2018) 19100 976 2980 12800 41600 50000
2020-07-17 07:00 4.75 5570 50000 (2019) 976 (2018) 19100 976 2980 12800 41600 50000
2020-07-17 06:00 5.11 6240 50000 (2019) 976 (2018) 19100 976 2980 12800 41600 50000
2020-07-17 05:00 5.50 7010 50000 (2019) 976 (2018) 19100 976 2980 12800 41600 50000
2020-07-17 04:00 5.95 7960 50000 (2019) 976 (2018) 19100 976 2980 12800 41600 50000
2020-07-17 03:00 6.42 8990 50000 (2019) 976 (2018) 19100 976 2980 12800 41600 50000
2020-07-17 02:00 6.93 10200 50000 (2019) 976 (2018) 19100 976 2980 12800 41600 50000
2020-07-17 01:00 7.47 11500 50000 (2019) 976 (2018) 19100 976 2980 12800 41600 50000
2020-07-17 00:00 8.03 12900 50000 (2019) 976 (2018) 19100 976 2980 12800 41600 50000
2020-07-16 23:00 8.58 14400 50000 (2019) 951 (2018) 18600 951 1760 11800 42300 50000
2020-07-16 22:00 9.04 15700 50000 (2019) 951 (2018) 18600 951 1760 11800 42300 50000
2020-07-16 21:00 9.04 15700 50000 (2019) 951 (2018) 18600 951 1760 11800 42300 50000
2020-07-16 20:00 8.27 13600 50000 (2019) 951 (2018) 18600 951 1760 11800 42300 50000
2020-07-16 19:00 6.64 9500 50000 (2019) 951 (2018) 18600 951 1760 11800 42300 50000
2020-07-16 18:00 3.75 3880 50000 (2019) 951 (2018) 18600 951 1760 11800 42300 50000
2020-07-16 17:00 2.24 1870 50000 (2019) 951 (2018) 18600 951 1760 11800 42300 50000
2020-07-16 16:00 2.14 1750 50000 (2019) 951 (2018) 18600 951 1760 11800 42300 50000
2020-07-16 15:00 2.14 1750 50000 (2019) 951 (2018) 18600 951 1760 11800 42300 50000
2020-07-16 14:00 2.14 1750 50000 (2019) 951 (2018) 18600 951 1760 11800 42300 50000
2020-07-16 13:00 2.14 1750 50000 (2019) 951 (2018) 18600 951 1760 11800 42300 50000
2020-07-16 12:00 2.14 1750 50000 (2019) 951 (2018) 18600 951 1760 11800 42300 50000
2020-07-16 11:00 2.14 1750 50000 (2019) 951 (2018) 18600 951 1760 11800 42300 50000
2020-07-16 10:00 2.13 1740 50000 (2019) 951 (2018) 18600 951 1760 11800 42300 50000
2020-07-16 09:00 2.13 1740 50000 (2019) 951 (2018) 18600 951 1760 11800 42300 50000
2020-07-16 08:00 2.13 1740 50000 (2019) 951 (2018) 18600 951 1760 11800 42300 50000
2020-07-16 06:00 2.13 1740 50000 (2019) 951 (2018) 18600 951 1760 11800 42300 50000
2020-07-16 05:00 2.14 1750 50000 (2019) 951 (2018) 18600 951 1760 11800 42300 50000
2020-07-16 04:00 2.14 1750 50000 (2019) 951 (2018) 18600 951 1760 11800 42300 50000
2020-07-16 03:00 2.14 1750 50000 (2019) 951 (2018) 18600 951 1760 11800 42300 50000
2020-07-16 02:00 2.14 1750 50000 (2019) 951 (2018) 18600 951 1760 11800 42300 50000
2020-07-16 01:00 2.14 1750 50000 (2019) 951 (2018) 18600 951 1760 11800 42300 50000
2020-07-16 00:00 2.15 1770 50000 (2019) 951 (2018) 18600 951 1760 11800 42300 50000
2020-07-15 23:00 2.15 1770 50100 (2019) 1020 (2018) 20500 1020 1730 15400 44300 50100
2020-07-15 22:00 2.16 1780 50100 (2019) 1020 (2018) 20500 1020 1730 15400 44300 50100
2020-07-15 21:00 2.17 1790 50100 (2019) 1020 (2018) 20500 1020 1730 15400 44300 50100
2020-07-15 20:00 1800 50100 (2019) 1020 (2018) 20500 1020 1730 15400 44300 50100
2020-07-15 19:00 2.18 1800 50100 (2019) 1020 (2018) 20500 1020 1730 15400 44300 50100
2020-07-15 18:00 2.17 1790 50100 (2019) 1020 (2018) 20500 1020 1730 15400 44300 50100
2020-07-15 17:00 2.17 1790 50100 (2019) 1020 (2018) 20500 1020 1730 15400 44300 50100
2020-07-15 16:00 2.16 1780 50100 (2019) 1020 (2018) 20500 1020 1730 15400 44300 50100
2020-07-15 15:00 2.17 1790 50100 (2019) 1020 (2018) 20500 1020 1730 15400 44300 50100
2020-07-15 14:00 2.13 1740 50100 (2019) 1020 (2018) 20500 1020 1730 15400 44300 50100
2020-07-15 13:00 2.13 1740 50100 (2019) 1020 (2018) 20500 1020 1730 15400 44300 50100
2020-07-15 12:00 2.13 1740 50100 (2019) 1020 (2018) 20500 1020 1730 15400 44300 50100
2020-07-15 11:00 2.13 1740 50100 (2019) 1020 (2018) 20500 1020 1730 15400 44300 50100
2020-07-15 10:00 2.13 1740 50100 (2019) 1020 (2018) 20500 1020 1730 15400 44300 50100
2020-07-15 09:00 2.13 1740 50100 (2019) 1020 (2018) 20500 1020 1730 15400 44300 50100
2020-07-15 08:00 2.13 1740 50100 (2019) 1020 (2018) 20500 1020 1730 15400 44300 50100
2020-07-15 07:00 2.14 1750 50100 (2019) 1020 (2018) 20500 1020 1730 15400 44300 50100
2020-07-15 06:00 2.14 1750 50100 (2019) 1020 (2018) 20500 1020 1730 15400 44300 50100
2020-07-15 05:00 2.14 1750 50100 (2019) 1020 (2018) 20500 1020 1730 15400 44300 50100
2020-07-15 04:00 2.14 1750 50100 (2019) 1020 (2018) 20500 1020 1730 15400 44300 50100
2020-07-15 03:00 2.14 1750 50100 (2019) 1020 (2018) 20500 1020 1730 15400 44300 50100
2020-07-15 02:00 2.14 1750 50100 (2019) 1020 (2018) 20500 1020 1730 15400 44300 50100
2020-07-15 01:00 2.14 1750 50100 (2019) 1020 (2018) 20500 1020 1730 15400 44300 50100
2020-07-15 00:00 2.13 1740 50100 (2019) 1020 (2018) 20500 1020 1730 15400 44300 50100
2020-07-14 23:00 2.13 1740 50200 (2019) 5960 (2018) 26000 5960 7000 24000 47100 50200
2020-07-14 22:00 2.12 1730 50200 (2019) 5960 (2018) 26000 5960 7000 24000 47100 50200
2020-07-14 21:00 2.11 1720 50200 (2019) 5960 (2018) 26000 5960 7000 24000 47100 50200
2020-07-14 20:00 2.10 1710 50200 (2019) 5960 (2018) 26000 5960 7000 24000 47100 50200
2020-07-14 19:00 2.09 1700 50200 (2019) 5960 (2018) 26000 5960 7000 24000 47100 50200
2020-07-14 18:00 2.10 1710 50200 (2019) 5960 (2018) 26000 5960 7000 24000 47100 50200
2020-07-14 17:00 2.09 1700 50200 (2019) 5960 (2018) 26000 5960 7000 24000 47100 50200
2020-07-14 16:00 2.08 1690 50200 (2019) 5960 (2018) 26000 5960 7000 24000 47100 50200
2020-07-14 15:00 2.07 1680 50200 (2019) 5960 (2018) 26000 5960 7000 24000 47100 50200
2020-07-14 14:00 2.08 1690 50200 (2019) 5960 (2018) 26000 5960 7000 24000 47100 50200
2020-07-14 13:00 2.07 1680 50200 (2019) 5960 (2018) 26000 5960 7000 24000 47100 50200
2020-07-14 12:00 2.07 1680 50200 (2019) 5960 (2018) 26000 5960 7000 24000 47100 50200
2020-07-14 11:00 2.07 1680 50200 (2019) 5960 (2018) 26000 5960 7000 24000 47100 50200
2020-07-14 10:00 2.07 1680 50200 (2019) 5960 (2018) 26000 5960 7000 24000 47100 50200
2020-07-14 09:00 2.07 1680 50200 (2019) 5960 (2018) 26000 5960 7000 24000 47100 50200
2020-07-14 08:00 2.06 1670 50200 (2019) 5960 (2018) 26000 5960 7000 24000 47100 50200
2020-07-14 07:00 2.06 1670 50200 (2019) 5960 (2018) 26000 5960 7000 24000 47100 50200
2020-07-14 06:00 2.06 1670 50200 (2019) 5960 (2018) 26000 5960 7000 24000 47100 50200
2020-07-14 05:00 2.06 1670 50200 (2019) 5960 (2018) 26000 5960 7000 24000 47100 50200
2020-07-14 04:00 2.06 1670 50200 (2019) 5960 (2018) 26000 5960 7000 24000 47100 50200
2020-07-14 03:00 2.06 1670 50200 (2019) 5960 (2018) 26000 5960 7000 24000 47100 50200
2020-07-14 02:00 2.07 1680 50200 (2019) 5960 (2018) 26000 5960 7000 24000 47100 50200
2020-07-14 01:00 2.07 1680 50200 (2019) 5960 (2018) 26000 5960 7000 24000 47100 50200
2020-07-14 00:00 2.08 1690 50200 (2019) 5960 (2018) 26000 5960 7000 24000 47100 50200

A total of 753 rows are displayed for years 2016 through 2019.